Regional Weather Roundup
Issued by NWS

Home | Current Version | Previous Version | Text Only | Print | Product List | Glossary Off
Versions: 1 2 3 4 5 6 7 8 9 10 11 12 13 14 15 16 17 18 19 20 21 22 23 24 25 26 27 28 29 30 31 32 33 34 35 36 37 38 39 40 41 42 43 44 45 46 47 48 49 50

000
ASUS45 KCYS 040310
RWRWY

WYOMING REGIONAL WEATHER ROUNDUP
NATIONAL WEATHER SERVICE CHEYENNE WY
900 PM MDT SUN MAY 03 2015

NOTE:  "FAIR" INDICATES FEW OR NO CLOUDS BELOW 12,000 FEET
WITH NO SIGNIFICANT WEATHER AND/OR OBSTRUCTIONS TO VISIBILITY.

WYZ001-040400-
YELLOWSTONE NATIONAL PARK

CITY           SKY/WX    TMP DP  RH WIND       PRES   REMARKS
LK YELLOWSTONE   N/A     36  34  92 CALM      30.11S
W YELLOWSTONE  NOT AVBL

$$
WYZ002>013-054>058-071-098>099-040400-
NORTHERN WYOMING

CITY           SKY/WX    TMP DP  RH WIND       PRES   REMARKS
JACKSON        CLOUDY    46  45  93 SE6       30.04
CODY           CLOUDY    54  45  71 CALM      30.02R
GREYBULL       FAIR      64  37  36 NW20      29.93R
WORLAND        CLOUDY    60  40  47 SE9       29.96R
SHERIDAN       FAIR      54  43  66 SE7       30.01R
BUFFALO        CLOUDY    53  44  71 CALM      30.06R
GILLETTE       CLOUDY    56  37  49 N14       30.05R
HULETT         FAIR      54  36  50 E12       30.07R
NEWCASTLE      FAIR      55  34  44 E10G16    30.04R

$$
WYZ014>020-022>026-101>103-040400-
CENTRAL WYOMING

CITY           SKY/WX    TMP DP  RH WIND       PRES   REMARKS
BIG PINEY      MOCLDY    43  40  89 W6        30.08R
PINEDALE       TSTM      43  41  93 W13       30.11R
DUBOIS         CLOUDY    43  36  75 SW15G21   30.08R
LANDER         FAIR      52  41  66 W7        29.97R
RIVERTON       FAIR      54  39  57 E7        29.98R
CASPER         FAIR      50  44  80 SE6       29.99F
DOUGLAS        TSTM      51  46  83 W10       30.05R

$$
WYZ021-027>030-104>119-040400-
SOUTHERN WYOMING

CITY           SKY/WX    TMP DP  RH WIND       PRES   REMARKS
EVANSTON       FAIR      48  40  73 E16       30.03R
KEMMERER       FAIR      43  41  93 N9G16     30.07S
FORT BRIDGER   CLEAR     46  43  87 E10       30.08S
ROCK SPRINGS   FAIR      48  39  71 NW9       30.07S
DIXON          FAIR      49  41  73 NE8       30.08R
RAWLINS        FAIR      46  41  82 S7        30.05R
SARATOGA       FAIR      45  41  87 S7        30.09R
LARAMIE        MOCLDY    43  40  89 NE12      30.12R
CHEYENNE       MOCLDY    49  44  83 W6        30.09R
TORRINGTON     FAIR      59  41  51 CALM      30.02R
PINE BLUFFS    MOCLDY    50  46  87 N6        30.05R

$$



USA.gov is the U.S. government's official web portal to all federal, state and local government web resources and services.